Waskish, MN

4:08 AM CST on February 21, 2018 (GMT -0600)
Waskish Municipal

Weather History for KVWU - December, 2013

Change the Weather History Date:

Monday, December 2, 2013

  Actual Average (KBDE) Record (KBDE)
Temperature  
Mean Temperature 20 °F -  
Max Temperature 26 °F 22 °F 53 °F (1962)
Min Temperature 15 °F 6 °F -28 °F (1976)
Degree Days  
Heating Degree Days 44    
Moisture  
Dew Point 21 °F    
Average Humidity 91    
Maximum Humidity 100    
Minimum Humidity 80    
Precipitation  
Precipitation 0.01 in - - ()
Sea Level Pressure  
Sea Level Pressure 29.76 in    
Wind  
Wind Speed 8 mph (ENE)    
Max Wind Speed 16 mph    
Max Gust Speed 22 mph    
Visibility 4 miles    
Events Snow    
Averages and records for this station are not official NWS values.
T = Trace of Precipitation, MM = Missing Value Source: NWS Daily Summary

Daily Weather History Graph

Daily Weather History Graph

Search for Another Location

Airport or City:

Trip Planner

Search our weather history database for the weather conditions in past years. The results will help you decide how hot, cold, wet, or windy it might be!

Date:

Astronomy

Dec. 02, 2013 Rise Set
Actual Time 7:49 AM CST 4:26 PM CST
Civil Twilight 7:13 AM CST 5:01 PM CST
Nautical Twilight 6:34 AM CST 5:40 PM CST
Astronomical Twilight 5:56 AM CST 6:18 PM CST
Moon 7:11 AM CST (12/2) 4:32 PM CST (12/2)
Length of Visible Light 9h 48m
Length of Day
8h 37m
Waning Crescent, 0% of the Moon is Illuminated
Dec 2
Waning Crescent
Dec 2
New
Dec 9
First Quarter
Dec 17
Full
Dec 25
Last Quarter

Hourly Weather History & Observations

Time (CST) Temp. Windchill Dew Point Humidity Pressure Visibility Wind Dir Wind Speed Gust Speed Precip Events Conditions
12:00 AM 15.8 °F 8.6 °F 15.8 °F 100% 29.91 in 10.0 mi ENE 4.6 mph - N/A   Overcast
12:20 AM 17.6 °F 12.3 °F 15.8 °F 93% 29.91 in 10.0 mi ENE 3.5 mph - N/A   Overcast
12:40 AM 17.6 °F 8.2 °F 15.8 °F 93% 29.89 in 10.0 mi ENE 6.9 mph - N/A   Overcast
1:00 AM 17.6 °F 10.7 °F 15.8 °F 93% 29.89 in 10.0 mi ENE 4.6 mph - N/A   Overcast
1:20 AM 17.6 °F 12.3 °F 15.8 °F 93% 29.89 in 10.0 mi ENE 3.5 mph - N/A   Overcast
1:40 AM 17.6 °F 12.3 °F 15.8 °F 93% 29.88 in 10.0 mi ENE 3.5 mph - N/A   Overcast
2:00 AM 17.6 °F 10.7 °F 17.6 °F 100% 29.88 in 4.0 mi ENE 4.6 mph - N/A Snow Light Snow
2:20 AM 17.6 °F 8.2 °F 17.6 °F 100% 29.87 in 3.0 mi East 6.9 mph - N/A Snow Light Snow
2:40 AM 19.4 °F 10.4 °F 17.6 °F 93% 29.86 in 2.5 mi East 6.9 mph - N/A Snow Light Snow
3:00 AM 19.4 °F 8.6 °F 17.6 °F 93% 29.85 in 2.5 mi East 9.2 mph - N/A Snow Light Snow
3:20 AM 19.4 °F 10.4 °F 17.6 °F 93% 29.84 in 1.5 mi East 6.9 mph - N/A Snow Light Snow
3:40 AM 19.4 °F 10.4 °F 17.6 °F 93% 29.84 in 4.0 mi East 6.9 mph - N/A Snow Light Snow
4:00 AM 19.4 °F 10.4 °F 17.6 °F 93% 29.83 in 7.0 mi East 6.9 mph - N/A Snow Light Snow
4:20 AM 19.4 °F 7.9 °F 17.6 °F 93% 29.82 in 5.0 mi East 10.4 mph - N/A Snow Light Snow
4:40 AM 19.4 °F 8.6 °F 17.6 °F 93% 29.81 in 3.0 mi East 9.2 mph - N/A Snow Light Snow
5:00 AM 19.4 °F 7.9 °F 17.6 °F 93% 29.79 in 3.0 mi East 10.4 mph - N/A Snow Light Snow
5:20 AM 19.4 °F 8.6 °F 17.6 °F 93% 29.79 in 3.0 mi East 9.2 mph - N/A Snow Light Snow
5:40 AM 19.4 °F 9.5 °F 17.6 °F 93% 29.79 in 5.0 mi East 8.1 mph - N/A Snow Light Snow
6:00 AM 19.4 °F 8.6 °F 17.6 °F 93% 29.79 in 7.0 mi East 9.2 mph - N/A Snow Light Snow
6:20 AM 19.4 °F 8.6 °F 17.6 °F 93% 29.79 in 7.0 mi East 9.2 mph - N/A Snow Light Snow
6:40 AM 19.4 °F 9.5 °F 17.6 °F 93% 29.78 in 2.5 mi East 8.1 mph - N/A Snow Light Snow
7:00 AM 19.4 °F 9.5 °F 17.6 °F 93% 29.78 in 3.0 mi East 8.1 mph - N/A Snow Light Snow
7:20 AM 19.4 °F 10.4 °F 17.6 °F 93% 29.77 in 4.0 mi ENE 6.9 mph - N/A Snow Light Snow
7:40 AM 21.2 °F 11.7 °F 17.6 °F 86% 29.77 in 3.0 mi ENE 8.1 mph - N/A Snow Light Snow
8:00 AM 21.2 °F 10.9 °F 19.4 °F 93% 29.77 in 3.0 mi ENE 9.2 mph - N/A Snow Light Snow
8:20 AM 21.2 °F 10.9 °F 19.4 °F 93% 29.77 in 7.0 mi ENE 9.2 mph - N/A Snow Light Snow
8:40 AM 21.2 °F 10.9 °F 19.4 °F 93% 29.76 in 4.0 mi ENE 9.2 mph - N/A Snow Light Snow
9:00 AM 21.2 °F 9.5 °F 19.4 °F 93% 29.76 in 4.0 mi ENE 11.5 mph 16.1 mph N/A Snow Light Snow
9:20 AM 21.2 °F 9.5 °F 19.4 °F 93% 29.75 in 4.0 mi ENE 11.5 mph - N/A Snow Light Snow
9:40 AM 23.0 °F 12.4 °F 21.2 °F 93% 29.75 in 5.0 mi ENE 10.4 mph - N/A Snow Light Snow
10:01 AM 24.8 °F 14.6 °F 21.2 °F 86% 29.75 in 3.0 mi East 10.4 mph - N/A Snow Light Snow
10:20 AM 24.8 °F 13.4 °F 21.2 °F 86% 29.75 in 4.0 mi ENE 12.7 mph 16.1 mph N/A Snow Light Snow
10:40 AM 24.8 °F 14.6 °F 21.2 °F 86% 29.75 in 3.0 mi East 10.4 mph - N/A Snow Light Snow
11:00 AM 24.8 °F 13.4 °F 21.2 °F 86% 29.74 in 2.5 mi ENE 12.7 mph - N/A Snow Light Snow
11:20 AM 24.8 °F 15.3 °F 21.2 °F 86% 29.74 in 2.0 mi ENE 9.2 mph 16.1 mph N/A Snow Light Snow
11:40 AM 24.8 °F 14.6 °F 21.2 °F 86% 29.73 in 7.0 mi ENE 10.4 mph - N/A Snow Light Snow
12:00 PM 26.6 °F 16.8 °F 21.2 °F 80% 29.73 in 1.8 mi ENE 10.4 mph - N/A Snow Light Snow
12:20 PM 26.6 °F 15.2 °F 21.2 °F 80% 29.72 in 2.0 mi ENE 13.8 mph 19.6 mph N/A Snow Light Snow
12:40 PM 26.6 °F 15.7 °F 21.2 °F 80% 29.72 in 1.8 mi ENE 12.7 mph - N/A Snow Light Snow
1:00 PM 26.6 °F 15.2 °F 23.0 °F 86% 29.71 in 1.8 mi NE 13.8 mph 18.4 mph N/A Snow Light Snow
1:20 PM 26.6 °F 16.8 °F 23.0 °F 86% 29.71 in 1.8 mi ENE 10.4 mph - N/A Snow Light Snow
1:40 PM 26.6 °F 16.8 °F 23.0 °F 86% 29.71 in 2.0 mi ENE 10.4 mph - N/A Snow Light Snow
2:00 PM 26.6 °F 15.2 °F 23.0 °F 86% 29.70 in 1.2 mi ENE 13.8 mph - N/A Snow Light Snow
2:20 PM 26.6 °F 16.8 °F 23.0 °F 86% 29.70 in 1.5 mi ENE 10.4 mph 16.1 mph N/A Snow Light Snow
2:40 PM 26.6 °F 16.8 °F 24.8 °F 93% 29.70 in 1.5 mi ENE 10.4 mph 18.4 mph N/A Snow Light Snow
3:00 PM 26.6 °F 15.7 °F 23.0 °F 86% 29.69 in 2.0 mi NE 12.7 mph 17.3 mph N/A Snow Light Snow
3:20 PM 26.6 °F 15.7 °F 23.0 °F 86% 29.69 in 4.0 mi NE 12.7 mph - N/A Snow Light Snow
3:40 PM 26.6 °F 16.2 °F 23.0 °F 86% 29.70 in 7.0 mi ENE 11.5 mph 18.4 mph N/A   Overcast
4:00 PM 26.6 °F 16.2 °F 23.0 °F 86% 29.69 in 4.0 mi NE 11.5 mph - N/A Snow Light Snow
4:20 PM 24.8 °F 12.9 °F 23.0 °F 93% 29.70 in 3.0 mi NE 13.8 mph 18.4 mph N/A Snow Light Snow
4:40 PM 24.8 °F 14.0 °F 23.0 °F 93% 29.70 in 5.0 mi ENE 11.5 mph 17.3 mph N/A Snow Light Snow
5:00 PM 24.8 °F 11.9 °F 23.0 °F 93% 29.70 in 3.0 mi NE 16.1 mph 19.6 mph N/A Snow Light Snow
5:20 PM 24.8 °F 12.9 °F 23.0 °F 93% 29.70 in 5.0 mi NE 13.8 mph 21.9 mph N/A Snow Light Snow
5:40 PM 24.8 °F 14.0 °F 23.0 °F 93% 29.70 in 4.0 mi NE 11.5 mph - N/A Snow Light Snow
6:00 PM 24.8 °F 14.0 °F 23.0 °F 93% 29.71 in 4.0 mi NE 11.5 mph 18.4 mph N/A Snow Light Snow
6:20 PM 24.8 °F 14.0 °F 23.0 °F 93% 29.71 in 3.0 mi NE 11.5 mph 17.3 mph N/A Snow Light Snow
6:40 PM 24.8 °F 14.0 °F 21.2 °F 86% 29.71 in 2.0 mi NE 11.5 mph 18.4 mph N/A Snow Light Snow
7:00 PM 24.8 °F 13.4 °F 21.2 °F 86% 29.72 in 2.0 mi NE 12.7 mph - N/A Snow Light Snow
7:20 PM 24.8 °F 14.0 °F 23.0 °F 93% 29.72 in 2.5 mi NE 11.5 mph - N/A Snow Light Snow
7:40 PM 24.8 °F 14.0 °F 23.0 °F 93% 29.72 in 3.0 mi NE 11.5 mph 17.3 mph N/A Snow Light Snow
8:00 PM 24.8 °F 14.0 °F 23.0 °F 93% 29.72 in 3.0 mi NE 11.5 mph - N/A Snow Light Snow
8:20 PM 24.8 °F 14.0 °F 23.0 °F 93% 29.73 in 2.5 mi NE 11.5 mph - N/A Snow Light Snow
8:40 PM 24.8 °F 14.0 °F 23.0 °F 93% 29.73 in 2.5 mi NE 11.5 mph - 0.01 in Snow Light Snow
9:00 PM 24.8 °F 14.0 °F 23.0 °F 93% 29.74 in 2.5 mi NE 11.5 mph 17.3 mph N/A Snow Light Snow
9:20 PM 24.8 °F 14.6 °F 23.0 °F 93% 29.73 in 2.5 mi NE 10.4 mph - N/A Snow Light Snow
9:40 PM 24.8 °F 15.3 °F 23.0 °F 93% 29.74 in 3.0 mi NE 9.2 mph 16.1 mph N/A Snow Light Snow
10:00 PM 24.8 °F 14.0 °F 23.0 °F 93% 29.74 in 2.0 mi NE 11.5 mph - N/A Snow Light Snow
10:20 PM 24.8 °F 14.0 °F 23.0 °F 93% 29.73 in 2.5 mi NE 11.5 mph - N/A Snow Light Snow
10:40 PM 24.8 °F 13.4 °F 23.0 °F 93% 29.73 in 2.5 mi NE 12.7 mph - N/A Snow Light Snow
11:00 PM 24.8 °F 14.6 °F 23.0 °F 93% 29.74 in 3.0 mi NE 10.4 mph - N/A Snow Light Snow
11:20 PM 24.8 °F 13.4 °F 23.0 °F 93% 29.74 in 3.0 mi NE 12.7 mph 17.3 mph N/A Snow Light Snow
11:40 PM 24.8 °F 14.0 °F 23.0 °F 93% 29.74 in 3.0 mi NE 11.5 mph - N/A Snow Light Snow